Location: Hradec Kralove
(50.2170°N, 15.8330°E)
Time: 03:20:51
(UTC+01:00)

N. Korean satellite - Pass Details

Date: 05 December 2022
Orbit: 407 x 442 km, 97.3° (Epoch: 05 February)

Event Time Altitude Azimuth Distance (km) Brightness Sun altitude
Rises 05:19:47 0° 14° (NNE) 2,523 10.3 -21.3°
Reaches altitude 10° 05:21:52 10° 16° (NNE) 1,637 9.3 -20.9°
Maximum altitude 05:25:24 78° 103° (ESE) 481 6.5 -20.4°
Drops below altitude 10° 05:28:50 10° 190° (S) 1,599 9.2 -19.9°
Sets 05:30:51 0° 191° (SSW) 2,458 10.2 -19.5°
